sat.trackr.live / text

‹ back to catalog

STARLINK-3257

NORAD 50203 · 2021-125AZ

PAYLOAD ACTIVE UNKNOWN

§ Identity

Operator
Country
US
Launch date
2021-12-18
Launch site
AFWTR
Launch vehicle
Mass (kg)
RCS (m²)

Purposes: comms

External: N2YO · Heavens-Above · Gunter

§ Orbital elements

Epoch: 2026-09-20T04:20:01.203072Z

Period
94.01 min
Inclination
53.1594°
Eccentricity
0.0001159
Mean motion
15.31701931 rev/d
Perigee alt
469.9 km
Apogee alt
471.5 km
Semi-major
6,848.9 km
B*
2.3150e-5
RAAN
74.3362°
Arg perigee
90.2722°
Mean anomaly
269.8413°
Rev number
26,631

§ Raw data

STARLINK-32571 50203U 21125AZ  26263.18056948  .00000353  00000+0  23150-4 0  99962 50203  53.1594  74.3362 0001159  90.2722 269.8413 15.31701931266314

JSON: /api/v1/satellites/50203 · /tle

For live sub-satellite position, see the globe view (requires WebGL).

§ Visibility from observer

Set your observer location to see the next 7 days of passes ≥ 10°. The values pass through the URL so the page stays shareable.

No JS? Fill the form by hand. The geolocation button needs JavaScript.